Wetbulb
48.47 48.26 48.31 49.08 50.23 52.54 53.70 54.66 57.65 58.07 57.43 57.78 58.07 59.50 61.57 64.47 65.50 63.08 61.34 61.89 63.05 65.78 67.61 67.90 67.60 67.19 66.62 65.53 64.90 63.92 62.39 61.04 59.91 60.28 62.77 63.45 63.14 63.86 64.43 65.24 65.22 63.57 63.40
48.61 47.73 47.58 47.71 48.18 48.81 51.43 53.45 56.48 55.71 56.63 56.96 59.13 58.61 60.71 63.02 64.77 65.01 65.12 66.28 65.37 65.03 58.41 59.04 58.00 60.26 59.02 66.09 65.53 63.70 63.09 63.07 61.50 60.06 61.92 61.48 62.13 62.77 62.73 62.60 63.64 65.24 64.70
46.78 47.15 47.28 47.40 46.59 47.38 48.58 51.25 53.90 55.31 56.92 55.31 56.37 57.34 58.43 60.38 63.59 61.33 61.60 61.07 60.82 60.61 59.71 59.55 58.97 59.62 58.00 59.56 65.01 63.80 62.92 63.90 63.19 61.74 60.68 60.31 61.57 61.42 61.61 61.75 62.10 61.37 63.67
45.53 45.42 45.67 46.61 47.27 47.86 48.89 49.58 51.19 54.42 55.43 55.55 56.64 57.33 59.04 60.29 63.05 62.13 60.03 59.84 59.80 58.92 59.31 58.46 60.45 59.67 59.58 61.44 61.09 64.21 63.84 63.38 61.19 61.28 59.23 59.40 59.13 58.48 60.32 59.34 59.27 60.48 60.65
44.28 44.46 44.37 45.30 46.53 47.32 47.47 48.35 50.67 51.49 55.17 55.91 56.35 58.22 59.07 60.14 61.61 59.71 59.33 59.18 58.94 59.20 59.03 59.16 59.92 59.63 58.66 59.05 63.62 63.07 62.00 59.62 58.50 58.13 55.95 55.41 56.11 55.75 56.38 57.61 58.35 58.06 59.12
42.39 42.89 43.68 44.68 45.66 46.04 46.33 47.09 48.34 49.44 52.90 54.84 56.05 57.80 57.87 58.56 53.92 53.55 58.53 60.06 60.75 60.09 58.28 58.42 59.63 57.90 57.27 56.58 57.32 57.61 59.24 57.05 54.86 53.61 52.01 51.42 50.75 53.44 56.35 57.21 56.87 55.23 54.08
40.98 41.86 43.22 43.61 43.37 43.92 45.03 46.05 46.75 48.35 50.35 52.26 53.36 54.69 57.96 56.79 50.12 49.94 52.66 58.28 57.65 57.54 57.39 57.50 59.39 61.15 59.98 62.32 54.43 53.75 52.98 52.54 53.03 51.52 49.95 50.32 51.23 54.29 56.35 56.05 56.43 55.71 55.23
40.42 40.61 41.42 41.50 42.76 44.66 44.02 44.05 45.13 48.46 51.55 50.82 51.40 53.72 56.95 57.77 50.48 48.85 49.81 60.74 60.56 60.49 59.94 60.75 61.30 59.68 60.00 58.52 54.91 54.13 54.56 53.88 53.46 54.96 54.19 54.04 55.93 56.36 57.56 57.80 57.44 56.99 57.21
40.29 40.71 41.20 41.46 41.83 43.27 43.95 43.66 43.93 46.53 50.16 51.15 52.89 53.01 55.51 55.65 50.12 47.95 49.04 56.92 60.22 61.29 61.60 60.85 59.17 57.54 48.94 48.18 55.75 53.88 52.95 53.21 54.76 50.88 49.96 48.35 47.20 48.67 54.56 59.22 57.86 56.71 54.06
40.65 41.41 41.97 41.65 41.36 41.69 43.51 44.97 43.46 46.47 51.18 52.71 53.01 53.95 53.50 54.13 48.85 48.42 49.41 55.29 57.87 59.69 58.80 57.69 51.23 54.79 45.47 46.63 53.05 52.13 50.31 51.70 55.01 56.19 54.58 52.09 50.43 51.81 48.40 57.79 57.53 59.06 58.41
42.25 42.66 42.67 42.59 42.26 42.24 42.20 43.10 44.36 46.28 49.14 50.66 51.75 52.73 53.96 54.63 54.32 45.52 47.19 56.13 58.66 58.40 56.67 56.03 54.28 45.21 44.71 44.70 47.30 51.19 49.81 52.95 54.53 55.00 53.52 52.35 52.85 53.73 55.67 55.21 59.16 62.45 59.39
42.28 42.71 42.90 43.19 43.46 44.07 42.39 43.05 44.59 44.78 46.84 48.94 50.60 51.36 54.00 53.24 49.22 47.93 46.01 50.53 53.96 57.39 56.19 56.24 52.37 43.40 42.98 43.50 47.44 42.77 43.04 50.11 53.14 52.24 51.20 49.96 51.23 52.51 55.21 60.62 61.29 62.35 61.63
42.20 43.27 43.38 43.89 43.61 43.42 42.14 41.99 44.32 45.88 46.79 48.87 50.72 50.38 52.29 52.44 52.74 45.60 45.23 46.34 48.25 56.32 56.49 52.45 44.31 42.11 41.07 42.22 41.40 40.12 43.94 50.77 50.85 50.12 49.03 48.13 51.06 53.82 57.92 59.62 60.13 60.05 59.85
42.10 42.50 43.57 43.58 42.88 42.85 42.41 42.26 43.88 44.71 45.56 49.12 50.92 50.98 51.64 53.19 53.26 51.11 52.27 52.63 49.23 52.28 48.36 46.75 45.46 44.74 44.44 43.79 44.17 43.95 47.68 47.69 47.53 47.37 47.68 50.25 53.28 57.67 58.52 59.98 58.76 58.32 57.31
42.50 42.27 41.98 42.64 42.32 42.27 42.77 42.63 44.94 45.26 45.21 48.09 50.29 52.34 50.64 51.20 54.49 48.99 50.96 54.86 53.47 49.45 47.65 47.62 47.61 46.78 46.42 46.24 46.45 46.00 46.09 47.10 48.81 49.98 51.36 52.28 54.10 55.00 56.53 58.44 57.79 57.17 55.67
42.25 41.72 41.70 41.50 41.67 42.19 41.49 41.60 42.23 41.21 41.72 41.08 41.79 49.13 52.81 48.42 44.50 45.05 44.83 44.28 42.75 44.12 47.17 47.81 45.74 45.89 46.34 46.60 47.15 48.05 49.78 49.07 49.36 50.09 51.34 52.10 52.97 55.39 56.77 57.67 59.03 57.23 55.10
42.80 42.63 41.79 41.95 41.74 41.71 41.52 41.22 40.75 43.59 41.24 39.98 39.53 42.04 45.39 46.13 42.87 42.33 41.96 41.24 40.70 44.42 47.20 45.81 46.11 46.84 47.25 47.70 47.83 48.93 49.52 50.01 51.43 51.51 51.34 51.91 54.38 56.29 55.18 56.37 56.99 56.61 56.03
41.51 42.65 43.26 43.19 42.65 42.53 43.05 44.34 41.04 41.50 44.08 44.16 41.28 39.36 41.85 42.33 42.69 42.15 41.42 45.50 49.79 47.31 47.50 47.72 47.88 47.95 47.79 48.71 49.13 49.16 48.45 47.61 48.36 49.86 51.95 53.09 54.65 55.07 55.41 55.85 56.15 56.11 55.42
41.10 44.87 43.51 44.30 43.61 44.34 45.23 45.38 43.38 45.20 44.21 44.42 43.02 42.95 40.90 39.92 40.33 40.86 42.33 53.42 51.78 51.01 49.29 49.52 48.57 48.92 49.43 49.18 48.63 47.79 47.74 47.86 47.77 49.30 51.03 53.32 54.62 55.17 54.79 55.39 54.85 48.31 50.85
41.58 41.60 42.49 44.67 44.66 44.43 44.72 45.18 45.69 44.65 43.81 45.49 43.96 43.48 44.99 45.58 46.90 45.05 47.15 51.57 52.18 51.07 51.12 49.93 49.76 49.29 48.92 48.06 47.54 47.81 48.29 47.87 47.82 48.45 50.33 52.61 54.12 55.27 54.54 54.68 55.39 55.42 55.62
38.54 40.97 40.51 45.61 45.37 44.39 43.69 44.26 44.70 44.54 42.67 45.11 43.60 43.21 36.81 44.12 46.42 46.76 47.15 47.51 48.39 51.42 50.45 50.27 50.50 49.75 48.63 48.39 47.67 47.40 47.37 47.61 47.91 48.80 51.20 53.41 54.60 54.59 55.23 55.93 55.89 56.21 56.63
36.02 37.18 38.84 40.54 41.80 44.84 45.16 45.49 41.92 41.38 41.38 43.00 44.83 44.21 36.13 45.80 45.18 46.01 48.61 48.91 50.86 48.98 49.90 50.42 50.72 50.65 49.96 49.05 48.29 47.97 48.07 47.64 48.12 49.32 51.31 53.84 54.77 55.25 55.49 55.87 55.53 55.63 55.97
33.66 34.14 34.84 36.16 37.00 38.44 40.20 44.15 45.39 44.99 43.70 42.25 42.27 43.41 44.19 43.93 44.37 44.40 46.80 48.83 50.59 49.07 48.59 49.05 48.73 48.07 48.18 48.72 48.84 49.12 48.84 48.86 49.68 50.81 52.37 53.69 54.59 55.25 55.93 55.07 55.31 55.06 55.93
32.25 32.02 32.13 32.73 33.42 34.29 35.75 37.21 39.51 39.87 44.63 44.11 43.05 42.76 43.40 44.24 44.18 44.62 45.60 46.49 47.46 49.29 48.80 48.99 49.05 48.92 48.36 48.16 48.61 48.56 49.34 50.21 51.65 52.27 53.36 54.52 55.17 52.77 55.41 54.71 55.39 55.33 55.37
31.20 30.68 30.28 30.13 30.61 30.95 32.09 33.38 34.66 36.54 38.13 40.53 45.88 46.13 45.56 45.86 46.42 46.68 46.50 45.89 46.70 47.32 47.81 48.12 49.43 49.94 48.87 48.70 48.82 49.21 45.12 38.41 47.27 45.54 55.10 55.67 55.59 55.47 55.23 55.63 55.73 56.65 56.59
30.44 29.78 29.18 29.14 28.91 29.05 29.22 29.68 30.91 32.58 33.89 36.43 37.85 40.02 44.13 47.49 47.29 46.92 46.92 47.75 46.76 47.05 47.77 48.55 48.29 48.55 48.81 49.01 48.94 43.99 38.58 38.46 41.73 37.25 54.27 57.05 55.77 55.37 55.97 56.13 56.35 57.57 56.97
MSLP
1006.61 1006.13 1005.74 1005.45 1004.99 1004.64 1004.33 1003.78 1003.44 1003.13 1002.87 1002.60 1002.41 1002.39 1002.00 1001.70 1001.83 1002.32 1002.46 1002.73 1003.50 1003.21 1003.29 1003.87 1003.76 1004.33 1004.36 1004.73 1005.05 1005.71 1006.54 1006.80 1007.36 1007.83 1008.06 1007.72 1007.41 1007.85 1008.12 1008.04 1008.41 1008.55 1008.50
1006.89 1006.22 1005.70 1005.18 1004.71 1004.24 1004.04 1003.61 1003.22 1002.73 1002.20 1001.82 1001.52 1001.28 1001.20 1000.71 1000.54 1000.91 1001.10 1001.71 1002.05 1002.47 1003.22 1003.74 1003.46 1005.65 1004.85 1003.70 1004.44 1005.53 1006.15 1006.00 1006.44 1007.15 1007.90 1007.87 1007.41 1007.40 1007.72 1008.04 1008.15 1008.04 1008.07
1006.65 1006.14 1005.61 1005.05 1004.55 1004.00 1003.55 1003.20 1002.86 1002.43 1001.68 1001.27 1000.92 1000.52 1000.13 999.56 999.24 999.73 999.93 1000.57 1001.15 1001.67 1002.27 1002.45 1003.28 1003.64 1004.97 1005.22 1004.15 1005.16 1005.31 1005.37 1005.61 1006.40 1007.26 1007.42 1006.87 1007.25 1007.87 1007.78 1007.69 1007.86 1007.78
1006.30 1005.73 1005.05 1004.42 1003.90 1003.45 1002.92 1002.60 1002.32 1001.90 1001.38 1000.69 1000.17 999.77 999.10 998.26 997.91 998.50 999.04 999.52 1000.30 1000.61 1000.69 1000.86 1001.26 1002.20 1003.22 1003.40 1004.55 1004.50 1004.59 1004.81 1005.32 1006.43 1006.99 1007.28 1007.23 1007.51 1007.66 1007.62 1007.73 1007.53 1007.70
1005.86 1005.14 1004.59 1004.31 1003.76 1002.97 1002.25 1001.84 1001.67 1001.35 1000.85 1000.27 999.64 998.91 998.24 997.36 997.12 997.33 997.75 997.98 998.49 998.89 998.99 999.19 999.53 999.06 1000.15 1001.56 1002.79 1003.28 1003.79 1004.52 1005.10 1006.06 1007.19 1006.98 1007.15 1007.70 1007.81 1007.54 1007.77 1007.33 1007.37
1005.73 1004.90 1004.28 1003.65 1002.98 1002.35 1001.82 1001.32 1000.85 1000.60 1000.34 999.68 999.01 998.43 997.82 997.19 996.87 996.62 996.79 997.17 997.33 997.61 997.78 998.28 998.99 998.47 998.95 1000.78 1003.00 1002.77 1002.98 1003.77 1004.65 1005.69 1006.47 1006.69 1007.10 1007.30 1007.49 1007.49 1007.64 1007.42 1007.77
1005.20 1004.44 1003.62 1002.91 1002.20 1001.59 1001.04 1000.59 1000.19 999.70 999.43 999.05 998.47 998.18 997.71 997.30 997.05 997.04 996.92 996.73 996.69 997.00 997.27 997.79 998.56 998.45 999.73 1000.50 1001.19 1001.68 1002.32 1002.90 1003.36 1004.61 1005.74 1005.95 1006.45 1006.67 1007.28 1007.53 1007.42 1007.15 1007.20
1004.34 1003.65 1002.99 1002.32 1001.45 1000.64 1000.31 1000.00 999.75 999.17 998.67 997.79 998.48 997.84 997.57 996.98 997.03 996.86 996.75 996.06 995.99 996.74 997.42 997.66 997.92 998.87 999.29 1000.40 1001.78 1002.47 1003.13 1002.83 1003.34 1003.82 1004.78 1004.93 1005.50 1005.71 1006.39 1006.90 1006.93 1006.77 1006.66
1003.48 1002.80 1002.21 1001.67 1000.90 1000.13 999.41 999.18 998.81 998.53 998.01 997.80 997.45 997.20 996.99 996.65 996.68 996.49 997.30 996.82 996.06 996.77 997.24 997.78 998.05 998.80 999.87 1000.41 1001.40 1002.34 1002.83 1003.16 1002.78 1003.75 1004.36 1005.11 1005.32 1005.06 1006.21 1006.39 1006.43 1007.04 1007.07
1002.49 1001.69 1001.15 1000.69 1000.13 999.55 998.90 998.43 998.16 997.86 997.17 996.30 996.59 996.48 996.40 996.23 996.56 996.73 997.48 997.08 996.71 996.96 997.45 997.52 997.81 998.17 999.86 1000.04 1000.84 1001.99 1003.12 1003.31 1003.25 1004.37 1004.89 1004.86 1004.56 1005.07 1005.88 1005.58 1005.87 1006.55 1006.87
1001.70 1000.69 999.96 999.50 999.07 998.74 998.37 997.97 997.67 997.08 996.60 995.98 995.99 995.81 995.64 995.60 995.83 996.77 996.71 996.89 996.58 996.82 997.53 998.08 998.07 999.24 999.74 1000.08 1000.76 1002.01 1002.75 1002.97 1003.42 1004.06 1004.36 1004.69 1004.71 1005.01 1005.07 1005.16 1004.99 1005.78 1005.65
1000.90 999.72 998.82 998.23 998.05 997.79 997.65 997.22 996.87 996.48 995.97 995.69 995.63 995.24 995.12 994.92 995.24 995.63 995.80 995.92 996.84 997.00 997.40 997.80 998.69 999.11 999.62 1000.57 1001.37 1002.14 1003.06 1002.96 1003.36 1003.67 1004.10 1004.65 1004.54 1004.34 1004.45 1004.08 1004.65 1004.89 1005.01
1000.21 998.85 997.46 996.97 997.13 997.11 997.11 996.86 996.52 995.80 995.34 995.18 995.05 994.70 994.31 993.90 994.62 995.08 994.55 995.41 996.74 996.98 996.80 997.39 998.44 999.56 1000.64 1001.59 1001.96 1002.59 1003.11 1003.07 1003.20 1003.76 1004.21 1004.25 1004.04 1003.53 1004.12 1004.00 1004.37 1004.71 1004.78
999.91 998.80 997.66 996.93 996.85 996.85 996.78 996.53 996.30 995.64 995.22 994.85 994.43 994.33 994.53 994.26 994.02 992.86 993.98 995.69 996.85 997.20 997.35 997.85 998.81 999.95 1000.69 1001.58 1002.38 1002.66 1002.64 1002.91 1003.20 1003.91 1003.64 1003.55 1003.65 1003.79 1003.99 1003.95 1004.19 1004.51 1004.58
999.84 999.03 998.30 997.60 997.24 997.01 996.61 996.24 995.89 995.41 995.08 994.68 994.14 994.25 994.47 995.20 995.44 995.23 994.94 995.77 996.69 996.21 997.02 998.22 999.35 1000.31 1001.18 1001.62 1002.16 1002.57 1003.06 1002.97 1003.58 1003.70 1003.55 1003.68 1004.15 1003.53 1003.71 1003.88 1004.05 1004.02 1004.35
999.92 999.19 998.55 997.95 997.39 997.00 996.70 996.19 995.61 995.29 994.90 994.42 993.56 993.92 995.03 995.38 995.86 995.92 995.49 995.82 995.98 996.29 997.09 998.42 999.40 1000.20 1000.85 1001.90 1002.31 1002.52 1002.73 1002.70 1003.11 1003.35 1003.24 1003.15 1003.48 1003.81 1003.73 1003.53 1003.45 1003.63 1004.64
999.95 999.21 998.52 997.94 997.42 996.92 996.55 996.25 995.68 995.31 994.89 994.52 994.13 993.70 993.32 994.40 994.73 996.09 996.20 996.39 996.61 996.47 997.41 998.65 999.47 1000.03 1000.68 1001.13 1001.62 1001.95 1002.08 1002.32 1002.54 1002.72 1003.07 1003.34 1003.48 1003.38 1003.21 1003.00 1003.32 1003.74 1004.36
1000.00 999.10 998.57 997.86 997.34 996.88 996.49 996.08 995.75 995.48 995.04 994.96 994.86 994.54 994.68 995.25 995.73 995.45 996.58 997.11 997.98 997.95 997.98 998.76 999.41 999.81 1000.31 1000.69 1001.23 1001.71 1001.99 1002.13 1002.14 1002.60 1003.03 1002.91 1002.65 1002.63 1002.74 1002.97 1003.29 1003.52 1003.98
1000.01 998.96 998.51 998.01 997.39 996.82 996.43 996.20 995.90 995.66 995.36 995.37 995.48 995.39 995.31 995.74 996.18 996.75 997.22 996.98 997.49 997.70 997.88 998.20 998.89 999.48 1000.00 1000.54 1001.05 1001.41 1001.49 1001.42 1001.77 1002.17 1002.24 1002.17 1001.99 1002.25 1002.48 1002.73 1002.93 1003.31 1003.67
1000.31 999.30 998.40 997.99 997.67 997.21 996.81 996.44 996.30 996.27 996.22 996.02 996.41 996.42 996.15 996.51 997.10 997.24 997.01 996.83 997.01 996.98 997.63 998.06 998.54 999.28 999.64 999.97 1000.29 1000.83 1001.10 1001.08 1001.40 1001.70 1001.74 1001.60 1001.52 1001.76 1002.00 1002.29 1002.63 1003.08 1003.33
1001.23 1000.14 999.17 998.08 997.72 997.60 997.36 997.03 996.98 996.99 996.94 996.86 996.88 996.85 996.90 997.10 997.06 997.24 997.43 997.39 997.49 997.60 997.81 997.97 998.68 999.04 999.34 999.45 1000.07 1000.45 1000.66 1000.86 1000.97 1001.17 1001.28 1001.15 1001.13 1001.46 1001.57 1001.87 1002.12 1002.33 1002.71
1002.32 1001.45 1000.50 999.66 998.99 998.08 997.86 997.53 997.29 997.12 997.14 997.27 997.10 997.01 997.10 997.07 997.27 997.35 997.46 997.36 997.30 997.62 997.56 997.83 998.27 998.37 998.80 998.89 999.34 999.96 1000.11 1000.35 1000.49 1000.59 1000.74 1000.71 1000.73 1000.98 1001.23 1001.43 1001.60 1001.89 1002.30
1003.40 1002.63 1001.84 1001.09 1000.44 999.64 998.99 998.24 997.79 997.64 997.51 997.47 997.46 997.43 997.22 997.24 997.36 997.42 997.58 997.39 997.19 997.33 997.43 997.67 998.02 998.17 998.16 998.40 998.52 998.92 999.36 999.36 999.52 999.73 1000.07 1000.13 1000.31 1000.46 1000.55 1000.79 1001.17 1001.57 1001.96
1004.48 1003.93 1003.42 1002.69 1001.93 1001.10 1000.47 999.81 999.09 998.47 997.61 997.34 997.33 997.32 997.27 997.09 996.87 996.88 996.91 996.82 996.60 996.61 996.77 996.99 997.22 997.30 997.39 997.66 997.94 998.21 998.34 998.49 998.72 998.96 998.95 999.30 999.51 999.81 1000.05 1000.51 1000.76 1000.95 1001.40
1005.70 1005.07 1004.56 1004.03 1003.40 1002.74 1001.85 1001.16 1000.45 999.81 999.13 998.32 997.17 996.81 996.62 996.53 996.47 996.29 996.14 996.19 996.24 996.26 996.15 996.27 996.30 996.36 996.55 996.91 997.09 997.27 997.56 997.87 997.96 998.01 998.20 998.38 998.66 999.00 999.52 999.96 1000.23 1000.60 1000.96
1007.00 1006.36 1005.79 1005.19 1004.58 1004.04 1003.41 1002.67 1001.85 1000.99 1000.29 999.57 998.88 997.97 997.00 996.19 995.80 995.77 995.74 995.56 995.57 995.61 995.60 995.67 995.85 995.96 995.95 996.02 996.17 996.38 996.70 996.98 997.06 997.19 997.52 997.66 997.93 998.33 998.96 999.41 999.76 1000.09 1000.50
Wind_Speed
11 8 7 7 9 9 7 7 8 7 7 7 7 7 12 15 13 15 15 16 19 19 19 19 16 12 11 9 7 6 6 4 5 3 3 5 3 4 3 3 4 5 4
12 8 8 7 7 6 7 9 8 8 6 7 6 8 11 14 15 15 19 17 21 18 7 3 3 6 13 13 7 11 9 6 5 6 5 4 3 5 4 4 4 4 4
15 15 13 11 8 8 7 7 8 10 7 8 6 8 12 13 14 10 12 9 8 9 8 9 6 4 10 14 11 11 8 6 5 4 4 2 3 2 3 2 4 3 4
16 17 17 16 13 12 10 9 7 9 10 10 8 10 12 15 13 14 13 13 13 11 12 11 10 11 10 12 20 12 8 7 4 4 2 3 2 2 2 2 3 2 2
19 18 16 17 18 17 14 12 10 9 11 10 11 12 12 11 11 14 15 17 18 17 14 13 13 14 10 4 2 13 9 5 4 4 3 1 3 1 3 2 2 1 2
18 19 18 18 17 16 16 16 14 11 11 10 11 10 8 7 13 16 14 14 16 16 15 13 12 16 17 23 20 17 13 9 6 5 3 3 3 3 2 3 3 2 1
17 18 18 17 18 17 16 13 13 10 9 10 9 6 8 7 12 15 11 8 10 11 12 10 9 9 13 11 9 11 8 10 11 8 6 6 4 6 3 3 4 3 4
17 17 16 17 18 15 14 13 13 11 9 5 9 7 5 6 13 14 14 9 6 7 6 11 11 10 11 12 11 9 8 7 8 5 6 6 6 7 6 5 3 2 2
17 16 16 15 16 15 14 13 7 6 8 9 6 7 7 5 14 12 2 5 9 6 9 9 11 13 16 17 12 9 7 3 6 7 6 6 6 5 5 3 2 2 1
17 16 15 14 15 15 13 10 7 9 9 4 7 8 9 5 12 17 12 5 13 9 9 10 14 13 17 17 13 10 7 5 7 5 4 4 4 4 8 6 4 4 3
17 17 15 14 13 12 13 12 9 8 7 5 6 6 6 9 9 7 18 11 10 7 7 9 8 17 17 16 13 8 7 7 6 6 4 1 2 4 4 6 6 7 4
18 17 16 13 10 9 10 9 8 9 8 6 5 6 4 5 5 9 24 16 9 9 11 9 10 17 15 14 9 12 12 8 4 4 2 2 2 2 4 3 7 7 4
18 17 17 10 8 8 7 8 7 8 4 5 4 1 3 4 2 8 17 15 14 9 9 12 18 16 16 9 11 13 8 4 4 2 2 2 3 2 4 1 3 4 4
16 16 13 5 5 5 6 6 5 7 4 4 4 3 2 2 7 5 6 9 11 9 12 9 10 11 8 11 6 4 3 4 4 3 3 1 2 1 2 2 3 3 3
13 11 10 6 4 4 4 5 5 6 1 3 3 3 3 5 5 1 7 13 9 11 12 7 7 5 4 4 3 3 3 3 4 3 2 2 3 1 1 3 2 2 3
12 7 7 5 5 4 3 4 9 5 6 6 1 5 6 12 12 10 10 14 14 14 6 7 4 4 6 5 5 3 3 5 3 3 3 3 2 4 4 2 2 3 3
12 8 6 5 5 6 3 3 5 4 3 10 10 3 5 6 14 9 13 13 9 10 8 5 4 5 4 5 4 4 2 2 3 3 3 4 5 4 3 2 2 3 3
13 9 5 6 5 5 3 4 4 4 1 3 8 9 7 14 14 7 10 10 3 5 4 5 4 4 4 4 3 3 4 3 2 3 3 5 5 4 3 3 3 4 4
11 7 5 5 5 6 3 3 2 2 4 4 4 6 10 11 6 10 11 3 3 2 3 3 4 4 4 5 5 4 5 2 2 1 1 3 4 4 3 3 2 5 6
12 18 7 4 3 4 4 4 5 4 3 5 5 3 2 4 2 1 3 3 3 2 2 2 3 4 5 5 5 5 3 1 0 2 3 3 4 4 4 4 4 4 4
10 11 17 5 3 3 3 3 3 3 3 4 2 3 4 4 4 1 4 3 2 5 4 4 4 5 4 5 5 5 4 3 2 3 3 4 3 4 4 4 4 4 4
11 11 11 10 10 6 3 3 2 1 2 1 1 2 3 1 1 2 2 5 7 5 4 5 6 6 6 6 6 5 5 5 4 4 4 5 5 5 4 4 4 4 4
13 13 12 11 11 12 10 8 4 3 3 3 3 3 2 3 4 4 5 5 6 7 5 5 5 5 4 5 5 6 6 6 6 4 5 4 4 5 5 4 4 3 5
13 14 13 12 11 11 11 10 9 12 8 4 4 4 5 4 5 6 6 5 4 4 5 6 6 7 6 5 5 5 5 5 5 6 8 6 5 6 4 3 4 5 7
13 13 13 13 13 12 12 12 11 10 10 9 8 4 6 6 6 6 7 5 5 4 5 5 5 7 9 11 9 9 8 9 8 8 5 7 8 8 5 4 4 6 8
13 14 12 11 11 12 12 12 12 11 11 10 9 10 9 8 7 7 6 5 5 5 6 5 7 11 11 10 11 11 10 10 9 10 7 7 6 5 5 6 9 7 10
Wind_Direction
317 309 309 304 305 294 261 248 237 240 246 250 266 276 280 271 227 218 213 216 225 231 239 235 241 231 220 201 191 184 193 155 172 214 225 219 167 183 218 197 205 215 246
308 303 303 299 303 303 303 300 287 271 256 251 277 290 288 282 257 235 228 221 224 224 158 129 12 310 0 252 192 202 200 180 150 172 196 219 191 201 203 198 219 220 232
300 299 297 293 298 296 294 301 300 286 265 276 262 269 281 277 257 223 211 206 157 172 183 164 148 82 324 302 267 214 198 188 171 140 203 233 196 149 199 198 219 228 246
296 299 295 288 284 288 292 294 299 296 280 276 271 273 270 272 240 211 194 172 175 179 177 183 174 182 196 265 233 220 194 169 152 160 155 197 194 236 221 196 264 200 259
297 288 290 297 293 290 285 290 287 291 280 276 280 277 268 256 225 192 191 187 190 199 198 193 193 173 158 215 186 217 176 168 145 143 163 116 136 159 193 188 208 186 276
299 294 288 281 279 277 278 276 265 274 277 274 278 274 271 249 236 203 196 198 207 209 208 204 205 177 193 204 204 187 166 156 142 142 150 156 192 191 193 181 190 126 303
292 295 292 287 281 274 269 268 274 257 260 256 278 282 261 237 251 245 219 192 197 205 194 172 182 178 206 212 177 144 151 165 161 154 158 177 154 194 174 204 212 174 189
289 287 288 288 284 278 274 267 267 255 247 277 258 256 272 255 233 233 232 179 162 179 190 186 183 176 168 155 152 154 172 150 150 144 173 172 188 165 181 193 204 202 81
290 287 285 285 286 290 277 270 252 264 246 240 224 240 239 227 267 251 238 281 203 206 192 199 164 161 157 144 144 136 116 118 117 172 187 196 193 176 194 149 169 144 239
292 285 280 275 276 280 276 278 255 252 253 227 224 225 235 248 214 245 183 218 230 180 174 181 159 153 155 140 130 134 136 167 128 131 149 135 142 222 207 204 159 189 200
296 289 278 269 264 271 273 272 278 261 271 253 241 232 242 243 240 204 197 200 227 159 161 169 141 152 147 133 125 139 160 151 145 137 131 153 220 239 204 200 199 217 170
300 291 284 269 257 265 271 291 277 263 247 237 214 244 202 243 317 230 188 172 191 172 164 149 159 145 125 129 130 125 130 119 126 129 135 202 239 253 263 218 207 211 184
312 314 301 265 252 241 258 273 292 276 220 215 214 222 292 288 130 132 170 165 191 174 155 149 141 128 119 101 116 129 138 131 123 133 212 218 219 217 278 207 161 154 108
317 332 342 318 268 241 265 258 267 278 270 212 198 147 137 44 317 11 119 162 179 159 117 95 115 105 103 118 116 126 122 138 150 198 219 211 288 232 191 190 165 155 122
318 332 345 346 331 294 280 285 272 277 247 295 185 154 136 92 301 109 150 166 169 133 110 102 104 100 112 105 96 152 188 155 180 200 235 184 225 279 247 196 176 131 111
317 331 329 330 322 312 327 301 291 293 308 251 12 176 157 146 169 143 129 120 112 138 91 127 109 123 134 152 172 193 178 171 197 203 215 238 235 227 222 185 137 150 145
320 318 317 317 313 312 299 297 289 304 68 58 33 212 132 97 104 201 95 71 62 73 105 96 117 144 155 164 180 180 168 169 164 168 199 225 224 217 218 173 172 161 143
323 316 318 313 300 308 288 266 256 271 325 1 31 33 191 153 137 131 108 110 70 34 97 126 151 167 183 181 192 189 195 194 144 156 195 220 216 193 183 212 189 156 139
321 321 326 328 326 331 335 334 6 155 78 57 36 40 47 50 89 92 174 150 177 156 136 115 144 178 190 184 186 197 204 192 152 174 244 227 217 182 198 216 165 146 157
336 327 300 307 319 337 1 4 27 31 45 74 56 23 35 88 129 129 226 153 215 289 205 150 189 205 200 188 169 186 217 208 354 233 253 238 211 190 199 200 181 165 186
344 342 343 318 350 359 341 357 15 58 58 41 40 88 84 72 41 140 186 188 188 199 210 192 195 205 204 181 174 190 195 230 217 222 241 238 206 208 204 207 198 188 158
357 353 356 0 360 355 357 313 303 322 300 246 310 307 254 117 309 50 226 222 219 213 202 192 210 213 205 189 177 194 214 222 229 223 228 226 207 211 192 212 196 177 164
7 3 2 4 3 360 10 354 306 285 253 237 208 230 241 232 221 214 226 218 201 199 198 189 198 205 207 201 176 182 197 211 215 208 226 223 214 211 200 201 186 158 167
11 9 8 5 6 4 4 360 359 358 313 254 240 226 219 234 249 222 210 240 248 213 195 196 196 199 196 201 193 191 205 217 206 217 228 220 213 197 179 184 183 174 163
7 9 10 6 7 2 356 358 357 357 354 350 324 252 234 232 238 247 233 208 221 246 241 208 212 222 212 217 217 216 201 206 221 228 213 211 204 186 179 182 175 170 156
10 7 6 3 5 4 2 358 353 352 352 348 345 340 334 278 238 229 238 217 207 221 234 212 218 227 220 222 228 220 202 203 220 229 221 212 190 171 171 182 177 173 166